SCP
0 0 0 0 0 0 0 0 0 0 0 0 0 0 0 0 0 0 0 0 0 0 0 0 0 -0 0 0 0 0 0 0 0 0 0 0 0 0 0 0 0 0 0
0 0 0 0 0 0 0 0 0 0 0 0 0 0 0 0 0 0 0 0 0 0 0 0 0 0 0 0 0 0 0 0 0 0 0 0 0 0 0 0 0 0 0
0 0 0 0 0 0 0 0 0 0 0 0 0 0 0 0 0 0 0 0 0 0 0 0 0 0 0 0 0 0 0 0 0 0 0 0 0 0 0 0 0 0 0
0 0 0 0 0 0 0 0 0 0 0 0 0 0 0 0 0 0 0 0 0 0 0 0 0 0 0 0 0 0 0 0 0 0 0 0 0 0 0 0 0 0 0
0 0 0 0 0 0 0 0 0 0 0 0 0 0 0 0 0 0 0 0 0 0 0 0 0 0 0 0 0 0 0 0 0 0 0 0 0 0 0 0 0 0 0
0 0 0 0 0 0 0 0 0 0 0 0 0 0 0 0 0 0 0 0 0 0 0 0 0 0 0 0 0 0 0 0 0 0 0 0 0 0 0 0 0 0 0
0 0 0 0 0 0 0 0 0 0 0 0 0 0 0 0 0 0 0 0 0 0 0 0 0 0 0 0 0 0 0 0 0 0 0 0 0 0 0 0 0 0 0
0 0 0 0 0 0 0 0 0 0 0 0 0 0 0 0 0 0 0 0 0 0 0 0 0 0 0 0 0 0 0 0 0 0 0 0 0 0 0 0 0 0 0
0 0 0 0 0 0 0 0 0 0 0 0 0 0 0 0 0 0 0 0 0 0 0 0 0 0 0 0 0 0 0 0 0 0 0 0 0 0 0 0 0 0 0
0 0 0 0 0 0 0 0 0 0 0 0 0 0 0 0 0 0 0 0 0 0 0 0 0 0 0 0 0 0 0 0 0 0 0 0 0 0 0 0 0 0 0
0 0 0 0 0 0 0 0 0 0 0 0 0 0 0 0 0 0 0 0 0 0 0 0 0 0 0 0 0 0 0 0 0 0 0 0 0 0 0 0 0 0 0
0 0 0 0 0 0 0 0 0 0 0 0 0 0 0 0 0 0 0 -0 -0 0 0 0 0 0 0 0 0 0 0 0 0 0 0 0 0 0 0 0 0 0 0
0 0 0 0 0 0 0 0 0 0 0 0 0 0 0 0 0 0 0 -0 -0 -0 0 0 0 0 0 0 0 0 0 0 0 0 0 0 0 0 0 0 0 0 0
0 0 0 0 0 0 0 0 0 0 0 0 0 0 0 0 0 0 0 0 0 0 -0 0 0 0 0 0 0 0 0 0 0 0 0 0 0 0 0 0 0 0 0
0 0 0 0 0 0 0 0 0 0 0 0 0 0 0 0 0 0 0 0 0 0 0 0 0 0 0 0 0 0 0 0 0 0 0 0 0 0 0 0 0 0 0
0 0 0 0 0 0 0 0 0 0 0 0 0 0 0 0 0 0 0 0 0 0 0 0 0 0 0 0 0 0 0 0 0 0 0 0 0 0 0 0 0 0 0
0 0 0 0 0 0 0 0 0 0 0 0 0 0 0 0 0 0 0 0 0 0 0 0 0 0 0 0 0 0 0 0 0 0 0 0 0 0 0 0 0 0 0
0 0 0 0 0 0 0 0 0 0 -0 -0 -0 -0 0 0 0 0 0 0 0 0 0 0 0 0 0 0 0 0 0 0 0 0 0 0 0 0 0 0 0 0 0
0 0 0 0 0 0 0 -0 -0 -0 -0 0 0 0 0 0 0 0 0 0 0 0 0 0 0 0 0 0 0 0 0 0 0 0 0 0 0 0 0 0 0 0 0
0 0 0 0 0 0 -0 0 0 0 0 0 0 0 0 0 0 0 0 0 0 0 0 0 0 0 0 0 0 0 0 0 0 0 0 0 0 0 0 0 0 0 0
0 0 0 0 0 0 0 0 0 0 0 0 0 0 0 0 0 0 0 0 0 0 0 0 0 0 0 0 0 0 0 0 0 0 0 0 0 0 0 0 0 0 0
0 0 0 0 0 0 0 0 0 0 0 0 0 0 0 0 0 0 0 0 0 0 0 0 0 0 0 0 0 0 0 0 0 0 0 0 0 0 0 0 0 0 0
0 0 0 0 0 0 0 0 0 0 0 0 0 0 0 0 0 0 0 0 0 0 0 0 0 0 0 0 0 0 0 0 0 0 0 0 0 0 0 0 0 0 0
0 0 0 0 0 0 0 0 0 0 0 0 0 0 0 0 0 0 0 0 0 0 0 0 0 0 0 0 0 0 0 0 0 0 0 0 0 0 0 0 0 0 0
0 0 0 0 0 0 0 0 0 0 0 0 0 0 0 0 0 0 0 0 0 0 0 0 0 0 0 0 0 0 0 0 0 0 0 0 0 0 0 0 0 0 0
0 0 0 0 0 0 0 0 0 0 0 0 0 0 0 0 0 0 0 0 0 0 0 0 0 0 0 0 0 0 0 0 0 0 0 0 0 0 0 0 0 0 0
Wind_Speed
4 4 3 2 3 3 4 4 3 3 1 1 2 2 3 3 3 3 3 9 10 9 9 9 8 6 6 6 6 5 4 3 1 1 3 4 5 4 3 4 5 5 6
4 4 4 3 3 3 3 4 4 4 2 0 1 1 1 2 3 4 3 5 10 11 10 9 9 8 8 7 6 6 6 5 4 2 1 3 4 4 3 3 4 4 4
1 2 3 3 2 2 2 2 3 2 2 1 1 2 2 2 3 3 3 3 4 8 11 9 8 8 9 9 8 7 6 6 6 4 2 3 4 4 3 2 3 4 4
5 3 2 1 2 2 2 2 1 0 1 1 1 2 2 3 4 4 3 3 3 4 7 10 9 9 9 10 10 9 8 8 7 6 4 3 3 4 4 3 3 4 4
11 7 5 5 4 3 3 2 2 2 2 1 2 2 2 3 4 4 4 4 4 4 4 8 11 11 11 11 11 12 11 10 9 8 6 6 5 5 5 5 5 5 6
13 10 8 8 6 5 4 3 3 2 2 2 2 3 4 4 4 5 5 4 3 4 4 4 5 7 12 13 13 14 13 11 11 10 8 8 8 7 8 8 7 7 7
13 12 9 9 8 6 5 4 2 3 3 2 3 4 3 4 4 4 3 3 4 4 5 5 4 4 5 12 14 15 16 14 13 12 11 10 10 10 10 10 10 10 9
14 11 12 9 9 7 9 7 5 3 3 3 2 3 5 5 4 2 2 2 2 2 4 5 5 5 4 4 9 16 17 17 16 15 14 12 12 12 12 12 12 11 11
13 13 12 10 10 9 8 9 7 5 3 3 2 2 3 4 5 3 2 1 2 3 5 5 6 6 6 5 5 11 16 18 19 18 16 15 14 14 14 13 13 12 12
13 12 12 11 11 9 10 9 9 5 4 3 3 2 1 2 3 6 4 3 3 4 5 5 6 6 6 5 7 13 16 18 18 19 18 17 17 16 15 15 14 14 13
11 12 11 10 10 9 10 10 9 9 6 4 3 3 2 2 2 4 7 5 4 3 4 5 5 6 7 6 6 11 17 19 19 18 18 19 19 18 17 16 16 15 15
8 11 10 9 9 8 9 8 8 8 8 6 5 4 3 3 3 3 6 9 9 5 5 4 5 6 6 6 9 16 19 20 21 20 18 18 19 20 19 18 17 17 17
6 8 8 7 7 7 7 7 7 7 7 6 5 4 3 3 3 4 6 8 10 7 4 4 5 5 6 5 7 16 17 20 22 22 20 18 19 20 20 20 19 18 18
4 5 5 6 6 6 7 6 5 5 5 5 6 5 4 4 3 3 3 5 9 7 4 5 4 5 6 5 10 17 10 19 21 23 22 20 20 21 21 21 21 20 20
3 5 5 5 5 5 5 5 4 5 5 4 5 5 4 4 4 4 4 4 4 8 10 5 3 3 4 5 11 8 7 16 21 22 23 22 22 23 23 23 23 22 22
4 4 5 5 5 5 5 5 4 5 5 5 5 6 6 5 5 5 5 5 5 6 9 5 6 6 7 7 12 9 9 18 20 22 23 24 24 24 25 25 24 24 24
3 4 4 5 5 5 5 5 6 6 7 7 6 7 8 7 7 5 5 6 7 7 12 11 9 8 8 8 9 8 8 9 9 19 23 25 26 25 25 26 26 25 25
2 3 3 4 5 5 5 6 8 7 7 9 9 9 10 8 8 7 7 8 8 8 11 16 11 10 10 9 9 10 9 8 8 17 23 25 26 27 26 26 27 25 24
2 2 3 4 5 5 6 7 7 8 8 10 10 12 12 11 12 9 9 10 9 10 10 13 13 9 10 8 9 9 9 9 9 14 21 24 26 27 28 28 28 26 23
2 3 4 4 5 6 8 8 9 10 11 11 11 11 12 12 13 12 12 11 10 11 11 12 13 10 10 9 9 9 9 7 9 8 15 17 20 24 29 30 27 23 22
3 4 5 5 6 6 6 10 12 12 13 14 13 12 13 16 20 18 15 12 12 11 11 12 14 13 10 8 10 7 11 8 9 8 9 9 9 10 14 22 24 24 25
4 5 5 6 7 7 15 19 16 13 14 15 15 14 14 15 18 22 24 24 22 17 13 13 15 16 15 10 8 9 11 11 11 4 8 10 8 12 11 10 20 26 28
5 5 6 7 9 11 18 20 21 16 15 14 15 15 13 12 14 15 19 23 21 24 25 19 19 19 18 14 13 14 13 14 15 7 5 10 8 12 9 12 25 28 28
4 6 7 8 10 12 19 22 22 15 13 14 14 15 16 16 15 18 17 17 17 16 19 16 16 18 17 16 15 18 18 17 17 10 9 14 9 11 8 9 22 28 29
5 6 7 7 9 13 19 22 21 12 11 14 14 15 16 16 22 26 20 17 18 17 21 27 29 28 31 31 25 15 14 15 18 15 10 14 13 8 8 10 15 26 29
5 7 8 7 9 11 18 21 21 9 11 12 12 14 18 22 26 28 20 17 19 18 16 17 21 24 22 22 26 19 15 16 16 15 11 13 11 6 7 8 10 11 17
Wind_Direction
169 162 169 168 163 155 157 150 147 144 112 43 33 28 356 344 335 330 327 329 326 315 300 289 278 270 268 268 264 256 250 233 163 33 14 356 357 7 21 24 16 12 8
168 166 169 175 179 178 169 162 162 162 163 150 329 352 338 330 326 319 315 320 322 321 316 299 286 276 270 263 257 255 248 219 183 185 337 323 316 315 328 11 10 356 345
145 150 162 179 184 154 140 132 140 145 157 170 288 323 327 320 307 302 302 302 309 313 317 320 316 299 285 272 259 250 240 210 201 196 223 287 292 285 288 312 335 319 310
39 58 59 46 72 92 101 111 104 205 194 202 282 309 317 310 297 288 285 283 289 298 310 313 322 322 312 293 273 254 235 223 213 202 214 246 274 278 275 278 287 287 296
34 42 42 39 54 64 58 56 48 14 334 318 301 291 284 277 277 279 270 265 266 278 292 306 315 321 316 306 290 274 250 236 219 207 215 234 248 261 266 266 267 270 274
33 38 41 36 36 45 43 43 51 45 16 350 315 290 274 263 260 256 260 267 267 275 286 296 309 314 311 308 298 286 264 245 226 212 221 237 247 254 259 261 263 263 264
34 38 36 34 33 41 39 38 42 42 32 6 335 318 302 271 268 279 284 292 304 311 313 306 305 302 306 305 303 296 278 258 238 223 224 233 245 252 255 256 258 259 258
37 38 37 36 31 36 36 31 30 30 30 28 14 337 331 333 347 335 299 264 281 297 290 284 284 282 285 291 293 295 291 277 259 242 229 229 241 250 253 255 255 255 254
42 41 40 40 36 35 31 24 20 30 13 9 23 4 342 319 320 311 331 316 283 276 273 273 270 269 269 269 280 288 289 288 279 267 250 233 234 244 250 254 254 252 251
42 41 40 41 41 38 33 25 23 17 22 9 358 14 261 274 302 312 313 315 308 288 288 287 281 276 268 265 264 271 278 282 283 279 267 250 235 236 244 250 252 250 249
38 37 37 38 37 35 33 29 26 27 25 18 2 342 334 296 246 280 299 313 317 289 280 272 268 269 266 259 258 262 268 272 275 275 268 256 240 233 238 244 248 248 246
34 31 34 35 33 30 27 24 23 25 21 18 10 5 352 332 328 302 296 306 302 291 276 259 257 260 258 251 254 260 263 265 267 269 266 254 236 230 233 240 245 246 245
32 23 27 28 28 23 22 18 20 16 13 8 2 350 337 316 305 300 298 302 301 298 275 257 245 253 260 253 256 259 257 260 260 261 260 250 236 230 232 238 243 246 245
38 19 23 26 23 20 19 13 14 4 357 350 344 333 318 309 307 301 294 304 307 302 280 273 262 245 257 261 266 271 261 256 257 258 256 249 241 236 235 239 243 245 244
31 20 18 18 14 10 7 2 356 342 334 328 318 311 304 300 299 293 286 278 281 299 301 289 278 277 276 274 277 276 258 259 258 257 255 252 245 240 238 240 243 244 242
21 11 10 7 1 357 353 346 332 321 320 314 307 303 300 297 295 288 285 280 263 265 279 284 285 286 282 276 279 273 260 266 262 258 255 252 248 242 238 238 241 242 240
10 4 355 349 343 340 337 330 321 317 316 310 304 299 293 291 288 285 282 278 273 265 274 282 284 291 285 278 281 277 270 264 262 258 254 252 249 245 239 236 237 238 238
350 340 334 331 329 330 322 317 313 315 306 306 306 301 297 296 287 283 279 276 274 267 271 281 284 288 284 279 275 273 272 266 258 260 258 253 250 246 241 236 234 234 234
325 335 334 327 323 320 315 308 301 304 301 299 300 299 300 300 296 292 283 281 278 277 271 276 279 276 281 280 279 271 260 260 259 262 261 257 251 247 243 238 233 230 228
340 344 337 328 324 321 316 312 315 310 303 299 298 297 297 296 296 296 291 284 283 281 278 277 279 274 270 273 272 276 274 254 255 252 256 253 249 246 243 240 235 228 223
353 339 334 331 328 319 314 319 317 310 307 304 302 300 297 297 296 294 290 290 290 285 284 282 281 280 270 261 264 265 270 273 260 240 248 249 245 241 237 238 233 225 222
345 337 332 325 321 319 317 318 317 311 307 304 304 304 300 293 292 294 294 292 289 286 286 283 281 278 279 275 270 267 270 273 272 232 225 243 228 240 235 228 232 229 224
333 328 320 319 312 308 313 316 316 311 303 300 299 298 297 296 295 290 289 289 288 285 282 281 279 279 284 287 289 280 269 264 264 249 227 251 228 240 234 234 235 232 228
322 315 311 306 301 302 312 315 313 307 298 294 293 293 292 292 290 289 287 284 282 280 279 277 274 277 280 281 277 277 279 278 274 259 229 255 241 239 230 226 237 235 233
307 301 294 296 297 301 308 309 308 301 295 294 292 288 287 286 286 288 287 283 281 278 279 276 273 275 277 281 281 279 270 264 263 258 235 246 251 242 231 226 229 232 234
294 296 295 295 291 290 297 304 306 297 293 291 289 285 283 285 286 288 285 281 279 277 273 270 270 271 272 274 275 272 273 270 269 263 236 234 243 225 243 230 215 216 228